Regional Weather Roundup
Issued by NWS Wilmington, NC

Home | Current Version | Previous Version | Text Only | Print | Product List | Glossary On
Versions: 1 2 3 4 5 6 7 8 9 10 11 12 13 14 15 16 17 18 19 20 21 22 23 24 25 26 27 28 29 30 31 32 33 34 35 36 37 38 39 40 41 42 43 44 45 46 47 48 49 50
000
ASUS42 KILM 280510
RWRILM
RWRILM
REGIONAL HOURLY WEATHER ROUNDUP
NATIONAL WEATHER SERVICE WILMINGTON NC
1200 AM EST SAT FEB 28 2015

NOTE: "FAIR" INDICATES FEW OR NO CLOUDS BELOW 12,000 FEET WITH NO
SIGNIFICANT WEATHER AND/OR OBSTRUCTIONS TO VISIBILITY.

...............WFO WILMINGTON COUNTY WARNING AREA...............

......COASTAL NC AND SC COUNTIES......

CITY           SKY/WX    TMP DP  RH WIND       PRES   REMARKS
WILMINGTON     MOCLDY    37  31  78 NE8       30.52R WCI  31
SOUTHPORT      MOCLDY    37  34  86 N3        30.51R
N MYRTLE BEACH PTCLDY    36  33  89 NE6       30.50R WCI  31
MYRTLE BEACH   PTCLDY    39  34  81 NE6       30.52R WCI  35

......INLAND NC AND SC COUNTIES.......

CITY           SKY/WX    TMP DP  RH WIND       PRES   REMARKS
LUMBERTON      CLEAR     39  25  57 NE8       30.52R WCI  33
ELIZABETHTOWN  PTCLDY    36  27  70 CALM      30.53R
WHITEVILLE     PTCLDY    40  27  59 NE9       30.51R WCI  34
FLORENCE       PTCLDY    37  28  70 NE6       30.51R WCI  32
DARLINGTON     CLEAR     36  27  69 NE6       30.53R WCI  31

....................REST OF NORTH CAROLINA......................

.........EASTERN NC.........

CITY           SKY/WX    TMP DP  RH WIND       PRES   REMARKS
CAPE HATTERAS  PTCLDY    36  33  89 VRB6G18   30.54R WCI  31
JACKSONVILLE   PTCLDY    32  25  74 NE9       30.56R WCI  24
MOREHEAD CITY  MOCLDY    33  29  85 NE10      30.54S WCI  25
KENANSVILLE    CLEAR     33  28  82 NE3       30.57R
NEW BERN       CLEAR     31  26  82 NE8       30.58R WCI  23
ELIZABETH CITY CLEAR     30  26  85 NE9       30.60R WCI  22

.........CENTRAL NC.........

CITY           SKY/WX    TMP DP  RH WIND       PRES   REMARKS
RALEIGH DURHAM PTCLDY    32  15  49 N6        30.57R WCI  26
ROCKY MOUNT    CLEAR     27  24  89 NE6       30.59R WCI  20
ROANOKE RAPIDS NOT AVBL
FAYETTEVILLE   CLEAR     33  23  66 NE6       30.53R WCI  28
HOFFMAN        CLEAR     36  23  60 E5        30.57R WCI  32

.........WESTERN NC.........

CITY           SKY/WX    TMP DP  RH WIND       PRES   REMARKS
CHARLOTTE      FAIR      36  20  52 NE13      30.51R WCI  27
GREENSBORO     CLEAR     29  11  47 NE12      30.54R WCI  19
HICKORY        NOT AVBL
BOONE          NOT AVBL
ASHEVILLE      NOT AVBL

.....................REST OF SOUTH CAROLINA.....................

.........EASTERN SC.........

CITY           SKY/WX    TMP DP  RH WIND       PRES   REMARKS
CHARLESTON     PTCLDY    39  34  82 NE6       30.47S WCI  35
BEAUFORT MCAS  MOCLDY    42  36  79 NE5       30.45S
HILTON HEAD    MOCLDY    45  39  81 N5        30.45S

.........CENTRAL SC.........

CITY           SKY/WX    TMP DP  RH WIND       PRES   REMARKS
COLUMBIA       PTCLDY    44  30  57 E9        30.48R
ORANGEBURG     PTCLDY    37  33  85 NE3       30.48R
SUMTER SHAW    PTCLDY    38  30  74 NE8       30.48R WCI  32

.........WESTERN SC.........

CITY           SKY/WX    TMP DP  RH WIND       PRES   REMARKS
GREENVILLE     NOT AVBL
ROCK HILL      CLEAR     33  25  72 NE3       30.51R
ANDERSON       CLEAR     39  24  55 NE12      30.46R WCI  32
CLEMSON        NOT AVBL
GREENWOOD      CLEAR     38  31  76 CALM      30.48R


...................COASTAL AND OFFSHORE REPORTS..................

................LOCAL PIERS AND NC RESERVE................


STATION/POSITION TIME  SKY/WX   TEMP    WIND        PRES    VSBY
                                AIR SEA DIR/SP/G
                 (UTC)          (F)     (DEG/KT/KT) (MB)    (MI)
JOHNY MRCER PIER 0500            40 48   40/ 23/ 25 1032.4F
NC RESRV MASNBRO 0400            41      30/  6     1031.0S
OCEAN CREST PIER 0500            40 47  360/  6/  7 1032.1R
SPRINGMAID  PIER 0500            44 45   20/  9/ 10 1032.9R


................COASTAL AND OFFSHORE BUOYS................


STATION/POSITION TIME  SKY/WX   TEMP    WIND        PRES    VSBY
                                AIR SEA DIR/SP/G
                 (UTC)          (F)     (DEG/KT/KT) (MB)    (MI)
DIMNDSHOAL 41025 NOT AVBL
CAPE LOOKOUT     0400            36      20/ 15/ 18 1033.5R
ONSLOW BAY 41036 NOT AVBL
5 WRITEBCH 41038 NOT AVBL
MASONBORO  41110 0500               47                N/A
WVE H/P(F/S)=  4/ 5 WND WVE H/P(F/S)=  5/ 5 SWL H/P/D(F/S/D)=  2/ 90/11

WILM HARBR 41108 0500               47                N/A
WVE H/P(F/S)=  3/ 4 WND WVE H/P(F/S)=  3/ 4 SWL H/P/D(F/S/D)=  2/130/11

27WRITEBCH 41037 NOT AVBL
FRYING PAN 41013 0500            50 62   50/ 17/ 21 1032.2S
WVE H/P(F/S)=  5/ 5 WND WVE H/P(F/S)=  5/ 5 SWL H/P/D(F/S/D)=  2/ 80/10

SUNST NRSH 41024 0400            43                   N/A
CAPRS NRSH 41029 NOT AVBL
EDISTO     41004 0500            54 63   50/ 19/ 25 1029.9F
WVE H/P(F/S)=  6/ 6 WND WVE H/P(F/S)=  5/ 6 SWL H/P/D(F/S/D)=  3/11



..........OFFSHORE BUOYS BEYOND 100 NM OFFSHORE...........
.....IN A TRIANGLE---HAT TO BERMUDA TO BAHAMAS TO HAT.....


STATION/POSITION TIME  SKY/WX   TEMP    WIND        PRES    VSBY
                                AIR SEA DIR/SP/G
                 (UTC)          (F)     (DEG/KT/KT) (MB)    (MI)
150E HAT   41001 NOT AVBL
W BERMUDA  41048 0437            62 68  260/  2/  6 1024.7F
WVE H/P(F/S)=  8/10 WND WVE H/P(F/S)=  2/ 3 SWL H/P/D(F/S/D)=  7/350/10

ATLANTIC S 41049 0443            74 74  120/  8/ 10 1025.6F
WVE H/P(F/S)=  4/ 9 WND WVE H/P(F/S)=  2/ 3 SWL H/P/D(F/S/D)=  5/100/ 9

E BAHAMAS  41046 0417            77 78  100/ 16/ 17 1023.1S
WVE H/P(F/S)=  5/ 9 WND WVE H/P(F/S)=  5/ 7 SWL H/P/D(F/S/D)=  3/100/ 9

NE BAHAMAS 41047 0433            74 74  130/  4/  6 1023.9F
WVE H/P(F/S)=  5/ 7 WND WVE H/P(F/S)=  2/ 3 SWL H/P/D(F/S/D)=  5/160/ 7

120E CANVRL41010 0500            67 71   60/ 21/ 25 1024.6R
WVE H/P(F/S)=  8/ 6 WND WVE H/P(F/S)=  7/ 6 SWL H/P/D(F/S/D)=  5/ 10/13


END


USA.gov is the U.S. government's official web portal to all federal, state and local government web resources and services.